Temp
-7 -7 -7 -8 -8 -8 -8 -8 -8 -8 -8 -8 -8 -8 -8 -8 -8 -8 -8 -9 -9 -9 -9 -9 -9 -9 -9 -9 -9 -9 -9 -9
-8 -7 -7 -7 -8 -8 -8 -8 -8 -8 -8 -8 -8 -8 -8 -8 -8 -8 -8 -9 -9 -9 -9 -9 -9 -9 -9 -9 -9 -9 -9 -9
-8 -8 -7 -7 -7 -7 -8 -8 -8 -8 -8 -8 -8 -8 -8 -8 -8 -8 -9 -9 -9 -9 -9 -9 -9 -9 -9 -9 -9 -9 -9 -9
-8 -8 -8 -8 -7 -7 -7 -7 -8 -8 -8 -8 -8 -8 -8 -8 -8 -8 -8 -8 -9 -9 -9 -9 -9 -9 -9 -9 -9 -8 -8 -8
-8 -8 -8 -8 -8 -8 -7 -7 -7 -7 -8 -8 -8 -8 -8 -8 -8 -8 -8 -8 -8 -8 -8 -9 -9 -9 -9 -8 -8 -8 -9 -9
-8 -8 -8 -8 -8 -8 -8 -8 -7 -7 -7 -7 -8 -8 -8 -8 -8 -8 -8 -8 -8 -8 -8 -8 -8 -9 -9 -9 -9 -9 -8 -9
-9 -8 -8 -8 -8 -8 -8 -8 -8 -8 -8 -8 -8 -8 -8 -8 -8 -8 -8 -8 -8 -8 -8 -8 -8 -8 -8 -8 -8 -9 -9 -9
-8 -9 -8 -8 -8 -8 -8 -8 -8 -8 -8 -8 -8 -8 -8 -8 -8 -8 -8 -8 -8 -9 -9 -9 -9 -8 -8 -9 -9 -8 -8 -8
-8 -8 -9 -9 -9 -8 -8 -8 -8 -8 -8 -8 -8 -8 -8 -8 -8 -8 -8 -8 -8 -8 -9 -9 -9 -9 -9 -8 -8 -8 -8 -8
-9 -9 -9 -9 -9 -9 -8 -9 -9 -9 -9 -9 -8 -8 -8 -8 -8 -8 -8 -8 -8 -8 -8 -9 -9 -9 -9 -9 -9 -8 -8 -8
-9 -9 -9 -9 -9 -9 -9 -9 -9 -9 -9 -9 -9 -9 -8 -8 -8 -8 -8 -8 -8 -8 -9 -9 -9 -9 -9 -9 -9 -9 -9 -9
-9 -9 -9 -9 -9 -9 -9 -9 -9 -9 -9 -9 -9 -9 -9 -9 -8 -8 -8 -8 -8 -8 -8 -8 -9 -9 -9 -9 -9 -9 -9 -9
-10 -10 -9 -9 -9 -9 -10 -10 -10 -9 -9 -9 -9 -10 -10 -10 -9 -9 -8 -8 -8 -8 -8 -8 -9 -9 -8 -9 -9 -9 -9 -9
-10 -10 -9 -9 -9 -9 -9 -10 -10 -10 -9 -9 -9 -9 -10 -10 -10 -10 -9 -9 -8 -8 -8 -8 -8 -9 -8 -8 -8 -8 -8 -9
-10 -10 -10 -10 -10 -10 -9 -9 -10 -10 -10 -10 -10 -9 -10 -10 -10 -10 -10 -10 -9 -9 -9 -9 -9 -9 -9 -8 -8 -8 -9 -9
-10 -10 -10 -10 -10 -10 -10 -10 -10 -10 -10 -10 -11 -11 -10 -10 -11 -10 -10 -10 -10 -10 -9 -9 -9 -9 -9 -9 -8 -8 -8 -8
-11 -11 -10 -10 -10 -10 -10 -10 -10 -10 -10 -10 -10 -11 -11 -11 -11 -11 -11 -11 -10 -10 -10 -10 -9 -9 -9 -9 -9 -9 -8 -8
-11 -11 -11 -11 -11 -11 -11 -11 -11 -11 -11 -11 -11 -11 -11 -11 -11 -11 -9 -11 -11 -11 -10 -11 -10 -10 -9 -9 -9 -9 -9 -9
-12 -12 -11 -11 -11 -11 -11 -11 -11 -12 -12 -12 -12 -12 -12 -11 -11 -12 -12 -11 -11 -11 -11 -11 -11 -11 -10 -10 -10 -9 -10 -9
-12 -12 -12 -12 -12 -12 -12 -12 -12 -12 -12 -13 -13 -13 -13 -12 -12 -12 -12 -12 -12 -11 -11 -11 -11 -11 -11 -11 -11 -11 -10 -10
Height
5899 5897 5895 5894 5894 5893 5894 5894 5894 5894 5895 5895 5895 5894 5894 5893 5893 5893 5893 5893 5893 5894 5894 5895 5896 5897 5897 5898 5898 5899 5899 5899
5900 5900 5899 5897 5896 5895 5895 5894 5895 5896 5896 5896 5896 5895 5895 5895 5895 5895 5895 5895 5895 5896 5896 5896 5897 5897 5898 5898 5899 5899 5900 5899
5900 5901 5901 5900 5898 5898 5897 5896 5895 5895 5896 5896 5896 5896 5896 5896 5896 5895 5896 5896 5896 5896 5897 5897 5897 5897 5897 5898 5898 5898 5898 5898
5900 5900 5900 5901 5901 5899 5897 5897 5896 5895 5895 5895 5896 5896 5896 5896 5896 5896 5896 5896 5896 5896 5897 5897 5897 5897 5897 5897 5897 5897 5897 5897
5899 5899 5899 5899 5900 5900 5900 5897 5897 5897 5896 5895 5894 5894 5896 5896 5896 5896 5896 5896 5896 5896 5896 5896 5896 5896 5895 5895 5895 5895 5895 5895
5898 5898 5898 5898 5898 5899 5899 5899 5899 5896 5895 5896 5895 5894 5893 5893 5895 5896 5895 5895 5896 5896 5895 5895 5895 5895 5894 5894 5893 5893 5892 5892
5897 5897 5897 5897 5897 5897 5898 5897 5897 5896 5896 5894 5893 5893 5893 5893 5892 5892 5892 5893 5893 5893 5893 5893 5893 5893 5892 5891 5891 5890 5890 5890
5894 5894 5894 5894 5896 5896 5894 5895 5894 5895 5894 5894 5893 5892 5891 5891 5891 5890 5889 5889 5888 5889 5889 5889 5889 5889 5888 5888 5887 5886 5886 5885
5888 5890 5890 5890 5889 5891 5892 5891 5891 5890 5891 5890 5890 5889 5889 5888 5886 5886 5886 5885 5885 5885 5884 5884 5884 5883 5883 5883 5882 5882 5881 5880
5880 5882 5884 5884 5884 5883 5885 5887 5887 5887 5886 5886 5886 5884 5884 5883 5883 5881 5880 5880 5879 5880 5878 5879 5878 5877 5877 5877 5877 5877 5876 5876
5872 5874 5876 5877 5877 5876 5877 5878 5879 5879 5879 5879 5878 5878 5876 5877 5876 5875 5874 5874 5874 5873 5872 5872 5871 5871 5870 5870 5869 5870 5869 5869
5867 5866 5868 5869 5870 5870 5869 5870 5870 5870 5869 5870 5870 5870 5870 5870 5870 5869 5867 5867 5867 5866 5866 5864 5864 5864 5863 5863 5863 5863 5862 5863
5858 5859 5860 5860 5861 5861 5861 5860 5861 5861 5861 5861 5861 5861 5863 5862 5862 5861 5860 5860 5860 5858 5858 5858 5857 5854 5852 5854 5853 5854 5854 5856
5849 5849 5850 5851 5851 5852 5852 5851 5851 5851 5851 5850 5850 5851 5851 5852 5853 5853 5851 5850 5850 5850 5849 5849 5849 5847 5844 5843 5844 5844 5848 5847
5840 5839 5839 5839 5839 5840 5840 5840 5840 5840 5839 5839 5839 5839 5839 5840 5841 5842 5843 5840 5841 5841 5840 5839 5840 5839 5836 5834 5836 5838 5836 5836
5831 5830 5829 5828 5827 5827 5827 5826 5827 5826 5826 5824 5825 5824 5826 5826 5826 5828 5829 5830 5828 5829 5830 5828 5827 5829 5826 5824 5825 5828 5828 5829
5822 5821 5820 5818 5817 5815 5814 5813 5812 5811 5811 5810 5810 5809 5809 5810 5812 5814 5814 5814 5815 5815 5815 5817 5816 5814 5817 5815 5813 5815 5817 5817
5813 5811 5810 5808 5806 5805 5802 5800 5797 5796 5795 5794 5793 5792 5791 5792 5793 5795 5796 5795 5796 5798 5800 5801 5801 5801 5802 5802 5801 5802 5804 5802
5805 5802 5800 5799 5796 5793 5791 5789 5786 5782 5780 5777 5775 5773 5773 5773 5774 5776 5775 5776 5778 5780 5783 5783 5783 5783 5784 5785 5785 5786 5788 5788
5797 5795 5792 5790 5787 5784 5781 5777 5773 5770 5766 5763 5760 5758 5754 5752 5753 5751 5753 5755 5756 5759 5757 5762 5761 5762 5765 5764 5767 5770 5770 5771
Wind_Speed
14 9 8 6 6 5 4 4 4 5 5 5 6 8 10 11 11 12 13 13 13 13 12 11 9 8 7 6 5 4 2 2
12 13 10 8 5 3 3 2 2 2 2 1 1 2 4 6 7 6 7 7 7 7 7 7 6 6 5 4 3 3 2 2
8 10 11 10 6 5 3 1 0 1 1 0 1 1 1 2 3 4 4 4 5 5 5 5 5 4 4 3 3 2 1 1
7 6 8 10 10 7 4 5 4 2 2 2 2 3 4 4 3 4 4 5 6 7 6 5 5 5 5 4 3 2 2 3
8 9 8 8 8 9 9 5 4 7 6 4 5 5 5 6 6 5 5 5 6 5 5 5 5 5 6 6 6 6 5 6
10 10 11 10 10 10 10 11 11 7 7 9 9 8 8 8 7 8 8 7 8 8 8 7 7 7 8 8 7 8 8 8
21 18 16 13 13 13 14 13 13 12 12 10 11 12 13 12 11 11 11 12 12 12 11 11 11 11 11 12 12 12 12 12
20 21 22 21 17 16 16 15 17 16 16 15 14 14 14 16 16 16 16 16 16 16 17 17 17 16 17 17 18 17 17 17
28 26 26 25 25 22 21 20 19 19 19 20 20 17 17 18 17 20 21 22 21 21 20 20 21 22 22 22 22 22 22 22
33 32 30 31 31 31 28 26 26 24 23 21 24 24 23 22 22 23 23 24 25 25 26 25 25 25 26 27 26 25 25 26
38 36 35 35 35 36 36 34 32 30 30 28 27 27 28 26 27 28 28 28 28 28 28 28 28 29 29 30 29 28 29 28
38 40 39 38 38 40 42 41 40 39 37 37 36 35 33 33 32 32 34 33 32 33 32 33 32 33 34 33 33 32 32 31
38 39 40 41 42 43 45 47 47 46 47 45 44 42 42 40 38 38 39 38 38 38 37 36 37 37 39 36 37 36 35 31
37 38 40 42 44 45 48 50 52 54 53 53 52 51 50 47 46 45 46 44 41 42 43 42 39 41 44 43 40 41 36 35
36 38 39 40 42 45 48 52 55 57 58 59 59 58 58 57 55 52 51 53 51 48 47 47 46 45 47 47 44 40 41 41
33 36 38 41 43 44 47 50 52 58 63 64 65 66 65 65 64 62 60 58 58 57 56 53 52 49 51 52 50 45 44 42
30 33 35 39 41 43 46 50 53 57 60 66 71 72 72 72 72 70 70 68 65 63 62 62 60 58 55 55 56 54 51 49
34 35 36 38 40 40 42 44 49 55 61 67 70 74 78 78 78 77 62 74 72 70 68 66 67 66 63 61 60 58 56 56
33 34 34 34 34 33 34 37 38 42 47 54 65 79 82 83 84 82 85 82 83 79 76 74 72 73 72 68 67 66 62 61
31 34 35 35 32 30 29 31 35 39 40 42 44 49 58 72 89 88 89 89 92 83 81 83 85 83 76 77 73 71 69 67
Wind_Direction
43 39 42 65 69 67 55 61 75 63 49 64 86 102 106 100 101 105 105 108 109 110 109 111 111 109 112 119 125 135 149 150
26 30 32 29 29 64 77 80 85 91 86 75 73 101 118 123 120 112 107 109 113 114 118 126 131 136 143 154 161 166 179 282
9 13 14 20 17 0 344 348 54 134 135 170 301 250 214 146 149 153 151 150 149 148 153 160 169 174 176 179 183 190 217 242
339 348 356 352 359 359 342 320 292 258 228 205 224 257 247 237 207 188 179 173 174 171 174 184 188 196 201 197 197 210 203 235
316 319 323 326 330 334 339 320 298 294 278 254 235 228 246 255 247 241 224 217 202 211 221 226 229 225 219 214 210 206 231 244
283 294 300 308 312 314 314 320 322 296 276 276 269 257 244 242 251 261 254 245 243 238 238 243 247 247 242 236 237 244 238 240
295 291 289 291 297 302 306 302 300 304 302 281 265 265 266 260 253 243 248 258 258 258 262 261 260 259 258 258 256 257 260 259
266 274 284 287 283 286 292 294 294 293 295 296 295 282 263 263 261 261 256 248 251 260 268 267 264 262 262 261 263 263 263 263
272 270 273 275 278 277 280 278 280 289 289 287 287 285 285 274 257 256 255 257 255 251 250 257 263 264 262 259 259 259 259 258
271 270 267 269 272 273 270 276 277 279 283 284 283 282 281 279 281 272 259 252 253 254 255 249 251 253 257 259 257 255 255 256
268 268 268 267 267 269 272 270 270 273 273 274 271 270 273 277 276 273 273 270 263 253 250 253 251 250 250 252 253 254 255 255
265 267 268 267 268 269 270 272 271 268 264 265 270 270 270 269 272 273 272 270 271 267 260 256 252 253 252 250 253 252 252 253
266 265 265 266 264 263 264 265 266 268 269 268 264 265 272 271 267 266 271 273 270 268 269 265 261 257 256 256 253 253 252 253
269 268 267 266 266 265 263 263 265 265 266 266 268 268 266 263 266 268 268 266 266 269 268 267 265 263 263 259 256 254 255 254
275 275 273 270 267 264 262 260 260 261 263 264 264 265 266 267 265 261 267 270 267 265 266 266 265 264 266 268 266 264 256 254
275 275 275 275 273 270 267 264 260 260 259 261 262 261 262 263 264 264 261 262 266 269 266 265 265 263 262 266 267 265 263 259
285 286 284 283 280 277 273 270 269 265 260 259 259 261 260 259 261 262 264 260 258 261 265 266 265 265 262 263 264 265 265 265
291 288 285 284 282 280 278 276 273 268 263 260 259 260 260 260 258 257 252 259 258 258 258 260 263 263 263 262 262 263 264 265
289 288 287 284 285 286 286 285 285 281 278 272 267 260 259 259 259 258 255 257 257 259 257 257 256 258 259 259 260 262 262 262
287 288 288 287 286 289 292 296 298 296 294 290 284 277 272 267 261 258 257 256 255 256 250 255 256 252 256 257 257 258 259 261